Regional Weather Roundup
Issued by NWS

Home | Current Version | Previous Version | Graphics & Text | Print | Product List | Glossary On
Versions: 1 2 3 4 5 6 7 8 9 10 11 12 13 14 15 16 17 18 19 20 21 22 23 24 25 26 27 28 29 30 31 32 33 34 35 36 37 38 39 40 41 42 43 44 45 46 47 48 49 50
000
ASUS43 KFSD 020602
RWRSD

WEATHER ROUNDUP FOR SOUTH DAKOTA
NATIONAL WEATHER SERVICE SIOUX FALLS SD
1200 AM CST FRI DEC 02 2016

NOTE: "FAIR" INDICATES FEW OR NO CLOUDS BELOW 12,000 FEET WITH NO
SIGNIFICANT WEATHER AND/OR OBSTRUCTIONS TO VISIBILITY.


SDZ001>005-009-010-012>017-020700-
NORTHWEST AND NORTH CENTRAL SOUTH DAKOTA

CITY           SKY/WX    TMP DP  RH WIND       PRES   REMARKS
BUFFALO          N/A     24  21  88 CALM      29.97R
FAITH            N/A     26  26 100 CALM      30.06R
MOBRIDGE       CLOUDY    30  26  85 CALM      30.08R
$$

SDZ012>016-024>037-041>051-057-063-072>074-020700-
SOUTHWEST AND SOUTH CENTRAL SOUTH DAKOTA

CITY           SKY/WX    TMP DP  RH WIND       PRES   REMARKS
RAPID CTY ARPT CLOUDY    23  18  81 CALM      30.05R
PIERRE         CLOUDY    30  25  81 W3        30.09R
CUSTER         CLOUDY    23  16  74 N3        29.96R
ELLSWORTH AFB  CLOUDY    21  18  88 W6        30.04R WCI  14
PHILIP         CLOUDY    24  22  91 W5        30.09R WCI  18
PINE RIDGE     CLOUDY    25  22  88 CALM      30.05R
SPEARFISH      MIX PCPN  27  21  80 W6        30.02R WCI  20
WINNER         CLOUDY    27  24  89 W5        30.10R WCI  22
$$

SDZ004>011-016>023-039-040-020700-
NORTHEAST SOUTH DAKOTA

CITY           SKY/WX    TMP DP  RH WIND       PRES   REMARKS
ABERDEEN       CLOUDY    29  24  82 N9        30.10R WCI  20
WATERTOWN      CLOUDY    26  23  88 N9        30.06R WCI  17
BROOKINGS      CLOUDY    28  27  93 N7        30.06R WCI  21
SISSETON         N/A     29  24  82 N9        30.09R WCI  20
$$

SDZ017-020-022-023-036>040-048>070-020700-
SOUTHEAST SOUTH DAKOTA

CITY           SKY/WX    TMP DP  RH WIND       PRES   REMARKS
SIOUX FALLS    CLOUDY    33  32  96 NW6       30.07R WCI  28
HURON          CLOUDY    30  28  92 N5        30.10R WCI  25
CHAMBERLAIN    CLOUDY    31  31 100 NW5       30.10R WCI  26
MITCHELL       CLOUDY    33  30  88 NW6       30.10R WCI  28
YANKTON        CLOUDY    32  28  86 W8        30.09R WCI  25
$$

ABBREVIATIONS USED IN REMARKS
   TC - TEMPERATURE IN CELSIUS
  WCI - WIND CHILL INDEX
   HX - HEAT INDEX
  VSB - VISIBILITY





USA.gov is the U.S. government's official web portal to all federal, state and local government web resources and services.